02/02/2011,00:00:22,   0.0,  0.0,  202, +8.7,  81.7,    0.3,   +4.4,   +4.8,   +6.9,+1100.00,E2
02/02/2011,00:00:40,   0.0,  0.0,  212, +8.6,  81.7,    0.3,   +4.4,   +4.7,   +6.9,+1100.00,E1
02/02/2011,00:00:58,   0.0,  0.0,  207, +8.6,  81.8,    0.4,   +4.3,   +4.8,   +6.9,+1100.00,F0
02/02/2011,00:01:15,   0.0,  0.0,  216, +8.6,  81.7,    0.2,   +4.4,   +4.7,   +6.9,+1100.00,E7
02/02/2011,00:01:41,   0.0,  0.0,  194, +8.6,  81.6,    0.4,   +4.4,   +4.8,   +6.8,+1100.00,EC
02/02/2011,00:01:59,   0.0,  0.0,  211, +8.6,  81.6,    0.3,   +4.4,   +4.8,   +6.8,+1100.00,EA
02/02/2011,00:02:17,   0.0,  0.0,  206, +8.6,  81.6,    0.2,   +4.3,   +4.8,   +6.8,+1100.00,E7
02/02/2011,00:02:35,   0.0,  0.0,  267, +8.6,  81.5,    0.3,   +4.4,   +4.7,   +6.8,+1100.00,EE
02/02/2011,00:03:01,   0.0,  0.0,  211, +8.6,  81.4,    0.2,   +4.3,   +4.8,   +6.7,+1100.00,DA
02/02/2011,00:03:19,   0.0,  0.0,  200, +8.6,  81.4,    0.3,   +4.3,   +4.8,   +6.7,+1100.00,E2
02/02/2011,00:03:37,   0.0,  0.0,  182, +8.6,  81.3,    0.4,   +4.4,   +4.8,   +6.7,+1100.00,EC
02/02/2011,00:03:55,   0.0,  0.0,  208, +8.6,  81.3,    0.4,   +4.3,   +4.8,   +6.7,+1100.00,EA
02/02/2011,00:04:21,   0.0,  0.0,  200, +8.6,  81.3,    0.2,   +4.3,   +4.8,   +6.7,+1100.00,DA
02/02/2011,00:04:39,   0.0,  0.0,  202, +8.6,  81.3,    0.0,   +4.3,   +4.8,   +6.7,+1100.00,E3
02/02/2011,00:04:57,   0.0,  0.0,  206, +8.6,  81.3,    0.2,   +4.4,   +4.7,   +6.7,+1100.00,E9
02/02/2011,00:05:15,   0.0,  0.0,  190, +8.6,  81.3,    0.1,   +4.4,   +4.8,   +6.6,+1100.00,E5
02/02/2011,00:05:41,   0.0,  0.0,  207, +8.6,  81.3,    0.0,   +4.4,   +4.8,   +6.6,+1100.00,E2
02/02/2011,00:05:59,   0.0,  0.0,  208, +8.6,  81.3,    0.3,   +4.3,   +4.8,   +6.6,+1100.00,EE
02/02/2011,00:06:17,   0.0,  0.0,  191, +8.6,  81.2,    0.3,   +4.4,   +4.8,   +6.6,+1100.00,EA
02/02/2011,00:06:42,   0.0,  0.0,  185, +8.6,  81.2,    0.2,   +4.5,   +4.7,   +6.6,+1100.00,EA
02/02/2011,00:07:00,   0.0,  0.0,  229, +8.6,  81.1,    0.3,   +4.4,   +4.8,   +6.5,+1100.00,E3
02/02/2011,00:07:18,   0.0,  0.0,  184, +8.6,  81.1,    0.1,   +4.4,   +4.7,   +6.5,+1100.00,E9
02/02/2011,00:07:36,   0.0,  0.0,  169, +8.5,  81.1,    0.4,   +4.4,   +4.7,   +6.4,+1100.00,ED
02/02/2011,00:08:02,   0.0,  0.0,  213, +8.5,  81.1,    0.4,   +4.4,   +4.8,   +6.4,+1100.00,DE
02/02/2011,00:08:20,   0.0,  0.0,  207, +8.5,  81.1,    0.4,   +4.4,   +4.7,   +6.4,+1100.00,E0
02/02/2011,00:08:38,   0.0,  0.0,  279, +8.5,  81.1,    0.3,   +4.4,   +4.8,   +6.4,+1100.00,F2
02/02/2011,00:08:56,   0.0,  0.0,  179, +8.5,  81.0,    0.3,   +4.3,   +4.9,   +6.3,+1100.00,EF
02/02/2011,00:09:21,   0.0,  0.0,  216, +8.5,  81.1,    0.4,   +4.4,   +4.8,   +6.3,+1100.00,E2
02/02/2011,00:09:39,   0.0,  0.0,  213, +8.5,  81.2,    0.2,   +4.3,   +4.8,   +6.3,+1100.00,E6
02/02/2011,00:09:57,   0.0,  0.0,  253, +8.5,  81.2,    0.2,   +4.4,   +4.8,   +6.3,+1100.00,EB
02/02/2011,00:10:15,   0.0,  0.0,  204, +8.4,  81.3,    0.2,   +4.4,   +4.7,   +6.4,+1100.00,D9
02/02/2011,00:10:41,   0.0,  0.0,  223, +8.5,  81.3,    0.2,   +4.4,   +4.7,   +6.3,+1100.00,D9
02/02/2011,00:10:59,   0.0,  0.0,  195, +8.4,  81.4,    0.4,   +4.3,   +4.8,   +6.2,+1100.00,EB
02/02/2011,00:11:17,   0.0,  0.0,  188, +8.4,  81.4,    0.4,   +4.3,   +4.8,   +6.2,+1100.00,E8
02/02/2011,00:11:42,   0.0,  0.0,  197, +8.4,  81.4,    0.3,   +4.4,   +4.8,   +6.2,+1100.00,E6
02/02/2011,00:12:00,   0.0,  0.0,  171, +8.4,  81.4,    0.4,   +4.4,   +4.7,   +6.3,+1100.00,DA
02/02/2011,00:12:18,   0.0,  0.0,  183, +8.4,  81.3,    0.2,   +4.4,   +4.7,   +6.3,+1100.00,E3
02/02/2011,00:12:36,   0.0,  0.0,  214, +8.4,  81.3,    0.4,   +4.4,   +4.8,   +6.2,+1100.00,E0
02/02/2011,00:13:02,   0.0,  0.0,  198, +8.4,  81.3,    0.1,   +4.3,   +4.8,   +6.1,+1100.00,E0
02/02/2011,00:13:20,   0.0,  0.0,  184, +8.4,  81.4,    0.4,   +4.4,   +4.8,   +6.2,+1100.00,E1
02/02/2011,00:13:38,   0.0,  0.0,  185, +8.4,  81.4,    0.3,   +4.4,   +4.8,   +6.1,+1100.00,E9
02/02/2011,00:13:56,   0.0,  0.0,  187, +8.4,  81.4,    0.3,   +4.3,   +4.8,   +6.1,+1100.00,EA
02/02/2011,00:14:21,   0.0,  0.0,  186, +8.4,  81.4,    0.4,   +4.4,   +4.8,   +6.1,+1100.00,E4
02/02/2011,00:14:39,   0.0,  0.0,  182, +8.4,  81.4,    0.4,   +4.4,   +4.8,   +6.1,+1100.00,E9
02/02/2011,00:14:57,   0.0,  0.0,  203, +8.3,  81.5,    0.0,   +4.5,   +4.7,   +6.1,+1100.00,DF
02/02/2011,00:15:15,   0.0,  0.0,  189, +8.4,  81.5,    0.2,   +4.4,   +4.8,   +6.1,+1100.00,EA
02/02/2011,00:15:41,   0.0,  0.0,  195, +8.3,  81.7,    0.2,   +4.4,   +4.7,   +6.0,+1100.00,E5
02/02/2011,00:15:59,   0.0,  0.0,  196, +8.3,  81.7,    0.3,   +4.3,   +4.8,   +6.0,+1100.00,F0
02/02/2011,00:16:17,   0.0,  0.0,  196, +8.3,  81.8,    0.0,   +4.5,   +4.7,   +6.1,+1100.00,EB
02/02/2011,00:16:42,   0.0,  0.0,  201, +8.3,  81.8,    0.4,   +4.4,   +4.8,   +6.0,+1100.00,DF
02/02/2011,00:17:00,   0.0,  0.0,  188, +8.3,  81.8,    0.4,   +4.4,   +4.7,   +6.0,+1100.00,E7
02/02/2011,00:17:18,   0.0,  0.0,  189, +8.3,  81.8,    0.2,   +4.3,   +4.8,   +6.0,+1100.00,EF
02/02/2011,00:17:36,   0.0,  0.0,  190, +8.3,  81.9,    0.4,   +4.4,   +4.7,   +6.0,+1100.00,EA
02/02/2011,00:18:02,   0.0,  0.0,  188, +8.3,  82.0,    0.4,   +4.4,   +4.7,   +6.0,+1100.00,E3
02/02/2011,00:18:20,   0.0,  0.0,  211, +8.2,  82.0,    0.3,   +4.4,   +4.8,   +6.0,+1100.00,D5
02/02/2011,00:18:38,   0.0,  0.0,  198, +8.2,  82.0,    0.1,   +4.3,   +4.8,   +6.0,+1100.00,E9
02/02/2011,00:18:56,   0.0,  0.0,  219, +8.2,  82.1,    0.0,   +4.3,   +4.8,   +6.0,+1100.00,E3
02/02/2011,00:19:22,   0.0,  0.0,  209, +8.3,  82.1,    0.4,   +4.3,   +4.8,   +6.0,+1100.00,E1
02/02/2011,00:19:40,   0.0,  0.0,  197, +8.2,  82.1,    0.2,   +4.3,   +4.8,   +5.9,+1100.00,EC
02/02/2011,00:19:58,   0.0,  0.0,  189, +8.2,  82.1,    0.3,   +4.4,   +4.7,   +6.0,+1100.00,EF
02/02/2011,00:20:16,   0.0,  0.0,  198, +8.2,  82.2,    0.4,   +4.4,   +4.8,   +6.0,+1100.00,E4
02/02/2011,00:20:42,   0.0,  0.0,  189, +8.2,  82.2,    0.2,   +4.4,   +4.8,   +6.0,+1100.00,E1
02/02/2011,00:21:00,   0.0,  0.0,  202, +8.2,  82.3,    0.2,   +4.4,   +4.7,   +6.0,+1100.00,CE
02/02/2011,00:21:18,   0.0,  0.0,  187, +8.2,  82.3,    0.4,   +4.3,   +4.8,   +6.0,+1100.00,E5
02/02/2011,00:21:36,   0.0,  0.0,  198, +8.2,  82.4,    0.4,   +4.5,   +4.7,   +6.0,+1100.00,E9
02/02/2011,00:22:02,   0.0,  0.0,  196, +8.1,  82.4,    0.2,   +4.4,   +4.7,   +6.0,+1100.00,DD
02/02/2011,00:22:20,   0.0,  0.0,  198, +8.2,  82.4,    0.0,   +4.3,   +4.8,   +5.9,+1100.00,E6
02/02/2011,00:22:38,   0.0,  0.0,  202, +8.1,  82.5,    0.4,   +4.3,   +4.8,   +5.9,+1100.00,E5
02/02/2011,00:22:56,   0.0,  0.0,  202, +8.2,  82.5,    0.3,   +4.3,   +4.9,   +6.0,+1100.00,DE
02/02/2011,00:23:22,   0.0,  0.0,  185, +8.1,  82.6,    0.3,   +4.4,   +4.8,   +6.0,+1100.00,E2
02/02/2011,00:23:40,   0.0,  0.0,  191, +8.1,  82.6,    0.0,   +4.3,   +4.8,   +6.0,+1100.00,DB
02/02/2011,00:23:58,   0.0,  0.0,  209, +8.1,  82.6,    0.3,   +4.5,   +4.7,   +6.0,+1100.00,E8
02/02/2011,00:24:16,   0.0,  0.0,  172, +8.1,  82.6,    0.4,   +4.3,   +4.8,   +6.0,+1100.00,E2
02/02/2011,00:24:42,   0.0,  0.0,  224, +8.1,  82.7,    0.2,   +4.5,   +4.7,   +6.0,+1100.00,DF
02/02/2011,00:25:00,   0.0,  0.0,  213, +8.1,  82.8,    0.2,   +4.3,   +4.8,   +6.0,+1100.00,D8
02/02/2011,00:25:18,   0.0,  0.0,  198, +8.1,  82.8,    0.4,   +4.4,   +4.8,   +6.0,+1100.00,F0
02/02/2011,00:25:36,   0.0,  0.0,  163, +8.1,  82.8,    0.4,   +4.5,   +4.7,   +6.1,+1100.00,E9
02/02/2011,00:26:02,   0.0,  0.0,  208, +8.1,  82.9,    0.3,   +4.5,   +4.7,   +6.1,+1100.00,E3
02/02/2011,00:26:20,   0.0,  0.0,  192, +8.1,  82.8,    0.1,   +4.4,   +4.7,   +6.1,+1100.00,E1
02/02/2011,00:26:38,   0.0,  0.0,  195, +8.1,  82.8,    0.4,   +4.4,   +4.7,   +6.1,+1100.00,F0
02/02/2011,00:26:56,   0.0,  0.0,  179, +8.1,  82.9,    0.4,   +4.3,   +4.8,   +6.0,+1100.00,F2
02/02/2011,00:27:22,   0.0,  0.0,  188, +8.1,  82.9,    0.2,   +4.5,   +4.7,   +6.1,+1100.00,EC
02/02/2011,00:27:40,   0.0,  0.0,  209, +8.1,  82.9,    0.2,   +4.3,   +4.8,   +6.1,+1100.00,E5
02/02/2011,00:27:58,   0.0,  0.0,  201, +8.1,  82.8,    0.4,   +4.4,   +4.7,   +6.1,+1100.00,E7
02/02/2011,00:28:16,   0.0,  0.0,  182, +8.1,  82.8,    0.4,   +4.4,   +4.7,   +6.2,+1100.00,EB
02/02/2011,00:28:42,   0.0,  0.0,  209, +8.1,  82.7,    0.1,   +4.4,   +4.7,   +6.2,+1100.00,E6
02/02/2011,00:29:00,   0.0,  0.0,  185, +8.1,  82.8,    0.3,   +4.5,   +4.7,   +6.2,+1100.00,E8
02/02/2011,00:29:18,   0.0,  0.0,  210, +8.1,  82.8,    0.4,   +4.3,   +4.8,   +6.2,+1100.00,E6
02/02/2011,00:29:36,   0.0,  0.0,  174, +8.1,  82.7,    0.2,   +4.3,   +4.8,   +6.2,+1100.00,EC
02/02/2011,00:30:02,   0.0,  0.0,  193, +8.1,  82.7,    0.4,   +4.4,   +4.8,   +6.2,+1100.00,E1
02/02/2011,00:30:20,   0.0,  0.0,  194, +8.1,  82.7,    0.2,   +4.4,   +4.8,   +6.3,+1100.00,E1
02/02/2011,00:30:38,   0.0,  0.0,  200, +8.1,  82.8,    0.2,   +4.3,   +4.8,   +6.2,+1100.00,DD
02/02/2011,00:30:56,   0.0,  0.0,  206, +8.1,  82.7,    0.3,   +4.4,   +4.8,   +6.2,+1100.00,E4
02/02/2011,00:31:22,   0.0,  0.0,  200, +8.1,  82.7,    0.2,   +4.4,   +4.8,   +6.2,+1100.00,D7
02/02/2011,00:31:40,   0.0,  0.0,  170, +8.1,  82.6,    0.1,   +4.4,   +4.7,   +6.3,+1100.00,DB
02/02/2011,00:31:58,   0.0,  0.0,  220, +8.1,  82.7,    0.4,   +4.4,   +4.7,   +6.3,+1100.00,E4
02/02/2011,00:32:16,   0.0,  0.0,  225, +8.1,  82.6,    0.4,   +4.4,   +4.8,   +6.3,+1100.00,E4
02/02/2011,00:32:42,   0.0,  0.0,  189, +8.1,  82.7,    0.2,   +4.3,   +4.8,   +6.3,+1100.00,EA
02/02/2011,00:33:00,   0.0,  0.0,  200, +8.1,  82.7,    0.2,   +4.4,   +4.7,   +6.3,+1100.00,D5
02/02/2011,00:33:18,   0.0,  0.0,  203, +8.1,  82.5,    0.3,   +4.4,   +4.8,   +6.3,+1100.00,E1
02/02/2011,00:33:36,   0.0,  0.0,  225, +8.1,  82.5,    0.4,   +4.4,   +4.8,   +6.3,+1100.00,E6
02/02/2011,00:34:02,   0.0,  0.0,  187, +8.1,  82.5,    0.4,   +4.3,   +4.8,   +6.2,+1100.00,E5
02/02/2011,00:34:20,   0.0,  0.0,  197, +8.1,  82.4,    0.0,   +4.3,   +4.8,   +6.3,+1100.00,E2
02/02/2011,00:34:38,   0.0,  0.0,  184, +8.1,  82.4,    0.4,   +4.4,   +4.7,   +6.3,+1100.00,EB
02/02/2011,00:34:56,   0.0,  0.0,  193, +8.1,  82.3,    0.4,   +4.3,   +4.8,   +6.3,+1100.00,EA
02/02/2011,00:35:22,   0.0,  0.0,  199, +8.1,  82.4,    0.4,   +4.5,   +4.7,   +6.3,+1100.00,EC
02/02/2011,00:35:40,   0.0,  0.0,  190, +8.1,  82.3,    0.0,   +4.4,   +4.7,   +6.3,+1100.00,DD
02/02/2011,00:35:58,   0.0,  0.0,  188, +8.1,  82.3,    0.4,   +4.3,   +4.8,   +6.2,+1100.00,F0
02/02/2011,00:36:16,   0.0,  0.0,  228, +8.1,  82.3,    0.4,   +4.4,   +4.8,   +6.3,+1100.00,E8
02/02/2011,00:36:42,   0.0,  0.0,  217, +8.1,  82.2,    0.2,   +4.4,   +4.8,   +6.3,+1100.00,E2
02/02/2011,00:37:00,   0.0,  0.0,  208, +8.1,  82.2,    0.3,   +4.4,   +4.8,   +6.3,+1100.00,DE
02/02/2011,00:37:18,   0.0,  0.0,  201, +8.1,  82.3,    0.4,   +4.4,   +4.7,   +6.3,+1100.00,E1
02/02/2011,00:37:36,   0.0,  0.0,  203, +8.1,  82.2,    0.4,   +4.3,   +4.9,   +6.3,+1100.00,E3
02/02/2011,00:38:02,   0.0,  0.0,  161, +8.1,  82.2,    0.2,   +4.4,   +4.7,   +6.3,+1100.00,DD
02/02/2011,00:38:20,   0.0,  0.0,  216, +8.1,  82.3,    0.2,   +4.4,   +4.8,   +6.4,+1100.00,E1
02/02/2011,00:38:38,   0.0,  0.0,  203, +8.1,  82.2,    0.1,   +4.4,   +4.7,   +6.4,+1100.00,E3
02/02/2011,00:38:56,   0.0,  0.0,  171, +8.1,  82.2,    0.1,   +4.3,   +4.9,   +6.3,+1100.00,E7
02/02/2011,00:39:22,   0.0,  0.0,  218, +8.1,  82.2,    0.2,   +4.4,   +4.8,   +6.3,+1100.00,E4
02/02/2011,00:39:40,   0.0,  0.0,  199, +8.1,  82.2,    0.2,   +4.3,   +4.8,   +6.4,+1100.00,EC
02/02/2011,00:39:58,   0.0,  0.0,  219, +8.1,  82.2,    0.4,   +4.5,   +4.7,   +6.4,+1100.00,F1
02/02/2011,00:40:16,   0.0,  0.0,  183, +8.1,  82.1,    0.4,   +4.3,   +4.9,   +6.3,+1100.00,E1
02/02/2011,00:40:42,   0.0,  0.0,  224, +8.1,  82.1,    0.2,   +4.4,   +4.8,   +6.4,+1100.00,DB
02/02/2011,00:41:00,   0.0,  0.0,  212, +8.1,  82.0,    0.2,   +4.4,   +4.8,   +6.4,+1100.00,D2
02/02/2011,00:41:18,   0.0,  0.0,  175, +8.1,  81.9,    0.2,   +4.4,   +4.8,   +6.4,+1100.00,EB
02/02/2011,00:41:36,   0.0,  0.0,  212, +8.1,  82.0,    0.4,   +4.4,   +4.7,   +6.4,+1100.00,DC
02/02/2011,00:42:02,   0.0,  0.0,  193, +8.1,  82.0,    0.2,   +4.4,   +4.8,   +6.4,+1100.00,DD
02/02/2011,00:42:20,   0.0,  0.0,  210, +8.1,  82.1,    0.2,   +4.4,   +4.8,   +6.5,+1100.00,D5
02/02/2011,00:42:38,   0.0,  0.0,  191, +8.1,  82.0,    0.4,   +4.3,   +4.9,   +6.4,+1100.00,E6
02/02/2011,00:42:56,   0.0,  0.0,  197, +8.1,  81.9,    0.4,   +4.4,   +4.7,   +6.5,+1100.00,F4
02/02/2011,00:43:22,   0.0,  0.0,  190, +8.1,  82.0,    0.1,   +4.4,   +4.8,   +6.5,+1100.00,DD
02/02/2011,00:43:40,   0.0,  0.0,  222, +8.1,  82.1,    0.2,   +4.4,   +4.7,   +6.5,+1100.00,DA
02/02/2011,00:43:58,   0.0,  0.0,  183, +8.1,  82.1,    0.4,   +4.3,   +4.8,   +6.4,+1100.00,EA
02/02/2011,00:44:16,   0.0,  0.0,  195, +8.2,  82.1,    0.4,   +4.3,   +4.9,   +6.4,+1100.00,EA
02/02/2011,00:44:42,   0.0,  0.0,  178, +8.2,  82.1,    0.2,   +4.4,   +4.8,   +6.5,+1100.00,E9
02/02/2011,00:45:00,   0.0,  0.0,  206, +8.2,  82.1,    0.1,   +4.4,   +4.8,   +6.5,+1100.00,DB
02/02/2011,00:45:18,   0.0,  0.0,  205, +8.2,  81.9,    0.3,   +4.3,   +4.8,   +6.5,+1100.00,EB
02/02/2011,00:45:36,   0.0,  0.0,  198, +8.1,  81.6,    0.3,   +4.3,   +4.8,   +6.5,+1100.00,F2
02/02/2011,00:46:02,   0.0,  0.0,  178, +8.2,  81.7,    0.2,   +4.5,   +4.7,   +6.5,+1100.00,EC
02/02/2011,00:46:20,   0.0,  0.0,  223, +8.1,  81.7,    0.0,   +4.3,   +4.8,   +6.5,+1100.00,DF
02/02/2011,00:46:38,   0.0,  0.0,  165, +8.2,  81.7,    0.3,   +4.4,   +4.8,   +6.5,+1100.00,F2
02/02/2011,00:46:56,   0.0,  0.0,  198, +8.1,  81.7,    0.3,   +4.4,   +4.7,   +6.6,+1100.00,F7
02/02/2011,00:47:22,   0.0,  0.0,  190, +8.1,  81.7,    0.1,   +4.4,   +4.8,   +6.6,+1100.00,E8
02/02/2011,00:47:40,   0.0,  0.0,  190, +8.1,  81.7,    0.2,   +4.4,   +4.8,   +6.6,+1100.00,E9
02/02/2011,00:47:58,   0.0,  0.0,  122, +8.1,  81.5,    0.4,   +4.3,   +4.8,   +6.6,+1100.00,EC
02/02/2011,00:48:16,   0.0,  0.0,  210, +8.2,  81.6,    0.4,   +4.4,   +4.7,   +6.6,+1100.00,E7
02/02/2011,00:48:42,   0.0,  0.0,  204, +8.2,  81.5,    0.2,   +4.5,   +4.7,   +6.6,+1100.00,E7
02/02/2011,00:49:00,   0.0,  0.0,  187, +8.2,  81.5,    0.1,   +4.3,   +4.8,   +6.6,+1100.00,EA
02/02/2011,00:49:18,   0.0,  0.0,  189, +8.1,  81.4,    0.4,   +4.4,   +4.8,   +6.7,+1100.00,F8
02/02/2011,00:49:36,   0.0,  0.0,  160, +8.2,  81.3,    0.2,   +4.5,   +4.7,   +6.7,+1100.00,EB
02/02/2011,00:50:02,   0.0,  0.0,  182, +8.2,  81.4,    0.2,   +4.4,   +4.8,   +6.7,+1100.00,E1
02/02/2011,00:50:20,   0.0,  0.0,  205, +8.2,  81.4,    0.2,   +4.5,   +4.7,   +6.7,+1100.00,DD
02/02/2011,00:50:38,   0.0,  0.0,  176, +8.1,  81.4,    0.2,   +4.5,   +4.7,   +6.7,+1100.00,EC
02/02/2011,00:50:56,   0.0,  0.0,  197, +8.2,  81.3,    0.4,   +4.4,   +4.8,   +6.7,+1100.00,F1
02/02/2011,00:51:22,   0.0,  0.0,  200, +8.2,  81.2,    0.1,   +4.4,   +4.8,   +6.7,+1100.00,D8
02/02/2011,00:51:40,   0.0,  0.0,  173, +8.2,  81.1,    0.2,   +4.4,   +4.8,   +6.7,+1100.00,E1
02/02/2011,00:51:58,   0.0,  0.0,  204, +8.2,  81.1,    0.4,   +4.5,   +4.7,   +6.8,+1100.00,E8
02/02/2011,00:52:16,   0.0,  0.0,  210, +8.2,  81.0,    0.4,   +4.4,   +4.8,   +6.7,+1100.00,DE
02/02/2011,00:52:42,   0.0,  0.0,  213, +8.2,  81.2,    0.1,   +4.4,   +4.8,   +6.7,+1100.00,DF
02/02/2011,00:53:00,   0.0,  0.0,  275, +8.2,  81.0,    0.1,   +4.4,   +4.8,   +6.7,+1100.00,E0
02/02/2011,00:53:18,   0.0,  0.0,  189, +8.2,  80.7,    0.3,   +4.5,   +4.7,   +6.8,+1100.00,F6
02/02/2011,00:53:36,   0.0,  0.0,  217, +8.2,  80.8,    0.3,   +4.3,   +4.9,   +6.7,+1100.00,EE
02/02/2011,00:54:02,   0.0,  0.0,  236, +8.2,  80.8,    0.2,   +4.4,   +4.8,   +6.7,+1100.00,E8
02/02/2011,00:54:20,   0.0,  0.0,  211, +8.2,  80.8,    0.2,   +4.4,   +4.8,   +6.7,+1100.00,E1
02/02/2011,00:54:38,   0.0,  0.0,  227, +8.2,  80.8,    0.4,   +4.3,   +4.8,   +6.7,+1100.00,F2
02/02/2011,00:54:56,   0.0,  0.0,  226, +8.2,  80.8,    0.4,   +4.4,   +4.8,   +6.7,+1100.00,F2
02/02/2011,00:55:22,   0.0,  0.0,  188, +8.2,  80.6,    0.1,   +4.4,   +4.8,   +6.7,+1100.00,EE
02/02/2011,00:55:40,   0.0,  0.0,  234, +8.2,  80.7,    0.2,   +4.3,   +4.8,   +6.7,+1100.00,E7
02/02/2011,00:55:58,   0.0,  0.0,  169, +8.2,  80.7,    0.5,   +4.4,   +4.8,   +6.7,+1100.00,FB
02/02/2011,00:56:16,   0.0,  0.0,  186, +8.2,  80.5,    0.4,   +4.3,   +4.8,   +6.7,+1100.00,F1
02/02/2011,00:56:42,   0.0,  0.0,  198, +8.2,  80.4,    0.2,   +4.3,   +4.8,   +6.7,+1100.00,F0
02/02/2011,00:57:00,   0.0,  0.0,  219, +8.2,  80.0,    0.3,   +4.3,   +4.8,   +6.7,+1100.00,E2
02/02/2011,00:57:18,   0.0,  0.0,  210, +8.2,  80.0,    0.4,   +4.3,   +4.8,   +6.7,+1100.00,E3
02/02/2011,00:57:36,   0.0,  0.0,  200, +8.2,  79.8,    0.4,   +4.4,   +4.8,   +6.7,+1100.00,F3
02/02/2011,00:58:02,   0.0,  0.0,  203, +8.2,  79.8,    0.2,   +4.4,   +4.7,   +6.8,+1100.00,EE
02/02/2011,00:58:20,   0.0,  0.0,  194, +8.2,  79.8,    0.2,   +4.4,   +4.7,   +6.8,+1100.00,F7
02/02/2011,00:58:38,   0.0,  0.0,  213, +8.2,  79.7,    0.4,   +4.4,   +4.8,   +6.8,+1100.00,FA
02/02/2011,00:58:56,   0.0,  0.0,  194, +8.2,  79.7,    0.3,   +4.3,   +4.8,   +6.8,+1100.00,00
02/02/2011,00:59:22,   0.0,  0.0,  191, +8.3,  79.6,    0.3,   +4.4,   +4.8,   +6.8,+1100.00,F8
02/02/2011,00:59:40,   0.0,  0.0,  198, +8.3,  79.5,    0.1,   +4.4,   +4.7,   +6.8,+1100.00,FB
02/02/2011,00:59:58,   0.0,  0.0,  161, +8.3,  79.4,    0.4,   +4.4,   +4.8,   +6.8,+1100.00,FD
02/02/2011,01:00:16,   0.0,  0.0,  207, +8.3,  79.6,    0.3,   +4.4,   +4.8,   +6.8,+1100.00,EC
02/02/2011,01:00:42,   0.0,  0.0,  222, +8.3,  79.2,    0.1,   +4.5,   +4.7,   +6.8,+1100.00,E2
02/02/2011,01:01:00,   0.0,  0.0,  216, +8.3,  79.0,    0.2,   +4.3,   +4.8,   +6.8,+1100.00,DE
02/02/2011,01:01:18,   0.0,  0.0,  218, +8.3,  78.9,    0.4,   +4.4,   +4.8,   +6.8,+1100.00,F4
02/02/2011,01:01:36,   0.0,  0.0,  235, +8.3,  78.8,    0.3,   +4.5,   +4.7,   +6.9,+1100.00,F2
02/02/2011,01:02:02,   0.0,  0.0,  214, +8.3,  78.8,    0.3,   +4.4,   +4.8,   +6.8,+1100.00,E8
02/02/2011,01:02:20,   0.0,  0.0,  227, +8.3,  78.7,    0.2,   +4.3,   +4.9,   +6.8,+1100.00,EA
02/02/2011,01:02:38,   0.0,  0.0,  232, +8.4,  78.4,    0.1,   +4.3,   +4.8,   +6.8,+1100.00,EB
02/02/2011,01:02:56,   0.0,  0.0,  210, +8.3,  78.2,    0.5,   +4.3,   +4.8,   +6.8,+1100.00,E8
02/02/2011,01:03:22,   0.0,  0.0,  215, +8.3,  78.1,    0.2,   +4.5,   +4.7,   +6.9,+1100.00,E5
02/02/2011,01:03:40,   0.0,  0.0,  204, +8.4,  78.2,    0.0,   +4.4,   +4.8,   +6.9,+1100.00,E3
02/02/2011,01:03:58,   0.0,  0.0,  263, +8.4,  78.0,    0.4,   +4.4,   +4.8,   +6.8,+1100.00,F2
02/02/2011,01:04:16,   0.0,  0.0,  220, +8.4,  77.8,    0.4,   +4.3,   +4.9,   +6.8,+1100.00,ED
02/02/2011,01:04:42,   0.0,  0.0,  214, +8.4,  77.7,    0.3,   +4.4,   +4.8,   +6.8,+1100.00,ED
02/02/2011,01:05:00,   0.0,  0.0,  223, +8.4,  77.8,    0.1,   +4.5,   +4.7,   +6.9,+1100.00,E8
02/02/2011,01:05:18,   0.0,  0.0,  207, +8.4,  77.7,    0.4,   +4.4,   +4.8,   +6.8,+1100.00,F4
02/02/2011,01:05:36,   0.0,  0.0,  225, +8.4,  77.5,    0.4,   +4.4,   +4.8,   +6.8,+1100.00,F2
02/02/2011,01:06:02,   0.0,  0.0,  206, +8.5,  77.4,    0.2,   +4.5,   +4.7,   +6.9,+1100.00,EA
02/02/2011,01:06:20,   0.0,  0.0,  188, +8.4,  77.4,    0.0,   +4.4,   +4.8,   +6.9,+1100.00,F0
02/02/2011,01:06:38,   0.0,  0.0,  181, +8.5,  77.3,    0.4,   +4.4,   +4.8,   +6.9,+1100.00,F6
02/02/2011,01:06:56,   0.0,  0.0,  225, +8.5,  77.2,    0.4,   +4.3,   +4.8,   +6.8,+1100.00,F2
02/02/2011,01:07:22,   0.0,  0.0,  219, +8.5,  77.3,    0.3,   +4.4,   +4.8,   +6.8,+1100.00,F0
02/02/2011,01:07:40,   0.0,  0.0,  186, +8.5,  77.1,    0.3,   +4.3,   +4.8,   +6.8,+1100.00,F0
02/02/2011,01:07:58,   0.0,  0.0,  204, +8.5,  76.8,    0.2,   +4.4,   +4.8,   +6.8,+1100.00,F6
02/02/2011,01:08:16,   0.0,  0.0,  210, +8.5,  76.7,    0.4,   +4.5,   +4.7,   +6.9,+1100.00,F0
02/02/2011,01:08:42,   0.0,  0.0,  219, +8.5,  76.9,    0.2,   +4.4,   +4.8,   +6.8,+1100.00,F7
02/02/2011,01:09:00,   0.0,  0.0,  206, +8.5,  76.7,    0.0,   +4.5,   +4.7,   +6.9,+1100.00,EB
02/02/2011,01:09:18,   0.0,  0.0,  196, +8.5,  76.6,    0.3,   +4.4,   +4.8,   +6.8,+1100.00,FD
02/02/2011,01:09:36,   0.0,  0.0,  208, +8.6,  76.6,    0.4,   +4.4,   +4.8,   +6.9,+1100.00,FA
02/02/2011,01:10:02,   0.0,  0.0,  239, +8.6,  76.7,    0.2,   +4.4,   +4.8,   +6.8,+1100.00,ED
02/02/2011,01:10:20,   0.0,  0.0,  207, +8.5,  76.8,    0.1,   +4.3,   +4.8,   +6.8,+1100.00,E6
02/02/2011,01:10:38,   0.0,  0.0,  209, +8.6,  76.8,    0.4,   +4.3,   +4.8,   +6.8,+1100.00,F5
02/02/2011,01:10:56,   0.0,  0.0,  191, +8.6,  76.9,    0.4,   +4.4,   +4.8,   +6.8,+1100.00,F7
02/02/2011,01:11:22,   0.0,  0.0,  230, +8.6,  76.9,    0.2,   +4.4,   +4.7,   +6.8,+1100.00,E8
02/02/2011,01:11:40,   0.0,  0.0,  236, +8.5,  76.9,    0.3,   +4.4,   +4.8,   +6.8,+1100.00,EF
02/02/2011,01:11:58,   0.0,  0.0,  216, +8.6,  76.9,    0.4,   +4.3,   +4.8,   +6.8,+1100.00,F7
02/02/2011,01:12:16,   0.0,  0.0,  245, +8.6,  76.7,    0.4,   +4.4,   +4.8,   +6.8,+1100.00,F3
02/02/2011,01:12:42,   0.0,  0.0,  195, +8.6,  76.9,    0.0,   +4.4,   +4.8,   +6.8,+1100.00,F4
02/02/2011,01:13:00,   0.0,  0.0,  234, +8.6,  77.1,    0.2,   +4.3,   +4.8,   +6.8,+1100.00,E3
02/02/2011,01:13:18,   0.0,  0.0,  172, +8.6,  77.0,    0.1,   +4.4,   +4.7,   +6.9,+1100.00,EC
02/02/2011,01:13:36,   0.0,  0.0,  246, +8.6,  77.0,    0.1,   +4.3,   +4.8,   +6.8,+1100.00,ED
02/02/2011,01:14:02,   0.0,  0.0,  225, +8.6,  77.1,    0.2,   +4.4,   +4.8,   +6.8,+1100.00,E7
02/02/2011,01:14:20,   0.0,  0.0,  240, +8.6,  77.4,    0.3,   +4.4,   +4.7,   +6.9,+1100.00,E8
02/02/2011,01:14:38,   0.0,  0.0,  251, +8.6,  77.7,    0.4,   +4.4,   +4.8,   +6.8,+1100.00,F7
02/02/2011,01:14:56,   0.0,  0.0,  239, +8.6,  78.0,    0.4,   +4.3,   +4.8,   +6.8,+1100.00,F6
02/02/2011,01:15:22,   0.0,  0.0,  214, +8.6,  78.0,    0.1,   +4.4,   +4.8,   +6.8,+1100.00,E7
02/02/2011,01:15:40,   0.0,  0.0,  211, +8.5,  78.1,    0.2,   +4.4,   +4.8,   +6.8,+1100.00,E5
02/02/2011,01:15:58,   0.0,  0.0,  201, +8.6,  78.1,    0.4,   +4.4,   +4.8,   +6.8,+1100.00,F0
02/02/2011,01:16:16,   0.0,  0.0,  223, +8.6,  77.9,    0.3,   +4.4,   +4.8,   +6.8,+1100.00,F5
02/02/2011,01:16:42,   0.0,  0.0,  186, +8.6,  78.7,    0.1,   +4.3,   +4.8,   +6.8,+1100.00,F8
02/02/2011,01:17:00,   0.0,  0.0,  247, +8.6,  79.0,    0.2,   +4.4,   +4.8,   +6.8,+1100.00,ED
02/02/2011,01:17:18,   0.0,  0.0,  242, +8.5,  78.4,    0.4,   +4.4,   +4.8,   +6.8,+1100.00,F5
02/02/2011,01:17:36,   0.0,  0.0,  236, +8.5,  78.6,    0.4,   +4.4,   +4.8,   +6.9,+1100.00,FB
02/02/2011,01:18:02,   0.0,  0.0,  244, +8.5,  78.7,    0.4,   +4.4,   +4.8,   +6.8,+1100.00,F4
02/02/2011,01:18:20,   0.0,  0.0,  236, +8.5,  78.7,    0.1,   +4.3,   +4.8,   +6.9,+1100.00,F2
02/02/2011,01:18:38,   0.0,  0.0,  241, +8.5,  79.0,    0.5,   +4.4,   +4.8,   +6.9,+1100.00,F6
02/02/2011,01:18:56,   0.0,  0.0,  243, +8.5,  79.5,    0.3,   +4.4,   +4.7,   +6.9,+1100.00,FA
02/02/2011,01:19:22,   0.0,  0.0,  226, +8.5,  79.6,    0.2,   +4.3,   +4.8,   +6.8,+1100.00,F4
02/02/2011,01:19:40,   0.0,  0.0,  253, +8.5,  80.0,    0.2,   +4.3,   +4.8,   +6.9,+1100.00,E7
02/02/2011,01:19:58,   0.0,  0.0,  222, +8.5,  80.0,    0.4,   +4.4,   +4.8,   +6.9,+1100.00,EF
02/02/2011,01:20:16,   0.0,  0.0,  221, +8.5,  80.4,    0.2,   +4.3,   +4.8,   +6.9,+1100.00,E1
02/02/2011,01:20:42,   0.0,  0.0,  232, +8.5,  80.8,    0.2,   +4.3,   +4.9,   +6.9,+1100.00,E7
02/02/2011,01:21:00,   0.0,  0.0,  231, +8.4,  80.8,    0.2,   +4.3,   +4.9,   +6.9,+1100.00,E0
02/02/2011,01:21:18,   0.0,  0.0,  258, +8.5,  81.0,    0.4,   +4.4,   +4.8,   +7.0,+1100.00,E6
02/02/2011,01:21:36,   0.0,  0.0,  243, +8.5,  81.3,    0.5,   +4.4,   +4.8,   +7.0,+1100.00,E4
02/02/2011,01:22:02,   0.0,  0.0,  223, +8.4,  81.6,    0.2,   +4.5,   +4.7,   +7.0,+1100.00,DB
02/02/2011,01:22:20,   0.0,  0.0,  197, +8.4,  81.8,    0.2,   +4.4,   +4.8,   +7.0,+1100.00,E7